Volver al catálogo

STARLINK-31057

ActivoComunicacionesVLEO
NORAD 58545·PAYLOAD·🇺🇸 United States

Lanzado Dec 8, 2023 desde Vandenberg Space Force Base

Loading…

Próximos Pases (próximas 24 horas)

TLE

ActualizadoSource: CelesTrak SupGP

Época: Sep 15, 2026, 03:18 UTC

1 58545C 23192Q   26258.13798611 -.00035303  00000+0 -10428-2 0  2583
2 58545  53.1574 258.7328 0001577  80.4129  65.9320 15.34413857    10

Sigue STARLINK-31057 en tiempo real con AllMySat

Download on the App Store